Regional Weather Roundup
Issued by NWS

Home | Current Version | Previous Version | Graphics & Text | Print | Product List | Glossary On
Versions: 1 2 3 4 5 6 7 8 9 10 11 12 13 14 15 16 17 18 19 20 21 22 23 24 25 26 27 28 29 30 31 32 33 34 35 36 37 38 39 40 41 42 43 44 45 46 47 48 49 50
000
ASUS45 KTFX 032110
RWRMT
MONTANA REGIONAL WEATHER ROUNDUP
NATIONAL WEATHER SERVICE GREAT FALLS MT
200 PM MST SAT DEC 03 2016

NOTE: "FAIR" INDICATES FEW OR NO CLOUDS BELOW 12000 FEET WITH NO
SIGNIFICANT WEATHER AND/OR OBSTRUCTIONS TO VISIBILITY.

MTZ001>007-043-032200-
WEST OF THE DIVIDE

CITY           SKY/WX    TMP DP  RH WIND       PRES   REMARKS
KALISPELL      CLOUDY    39  30  70 S7        30.02R
MISSOULA       CLOUDY    38  32  79 NW8       30.09S
BUTTE          CLOUDY    36  15  42 W14G23    29.97F WCI  27
MULLAN PASS    LGT SNOW  25  23  92 MISG      30.01F FOG
ANACONDA         N/A     37  16  41 W13G31    29.97R WCI  29
DEER LODGE       N/A     39  18  41 W13G22    30.00S WCI  32
EUREKA           N/A     43  21  42 S3        30.00S
HAMILTON         N/A     41  23  48 S3        30.07F
LIBBY            N/A     41  25  52 NW5       30.02S
RONAN            N/A     39  30  70 CALM      30.09S
$$

MTZ008-052>055-032200-
SOUTHWEST MONTANA

CITY           SKY/WX    TMP DP  RH WIND       PRES   REMARKS
BOZEMAN        CLOUDY    41  21  44 W17G24    29.97F
DILLON         SUNNY     38  14  37 W28G36    30.00F WCI  26
W YELLOWSTONE  CLOUDY    19  16  86 SW16G28   30.06S FOG     WCI   5
ENNIS          PTSUNNY   32  19  59 S13       30.07S WCI  22
THREE FORKS      N/A     42  42 100 SW8       29.98S
TWIN BRIDGES     N/A     41  12  30 SW13      29.99F
$$

MTZ009-010-012-014-046-048-049-054-032200-
EAST SLOPES AND CENTRAL MONTANA

CITY           SKY/WX    TMP DP  RH WIND       PRES   REMARKS
CUT BANK       MOSUNNY   37  20  50 W23G36    29.86S WCI  26
GREAT FALLS    SUNNY     42  22  44 W15       29.89S
MALMSTROM AFB  SUNNY     43  15  32 W21G28    29.89F
HELENA         PTSUNNY   42  20  41 NW18G26   29.97R
AUGUSTA          N/A     40  17  39 W23G35    29.89S
BOWMANS CRNR     N/A     40  19  43 SW12G21   29.88F
CHOTEAU          N/A     41  14  33 W21G28    29.89F
CONRAD           N/A     41  24  51 SW20      29.89F
FAIRFIELD        N/A     40  13  33 W29G36    29.88F
POWER            N/A     41  16  36 W25G33    29.87S
RAYNESFORD       N/A     39  21  47 W28G36    29.88S WCI  28
ULM              N/A     42  24  47 W21G31    29.90S
$$

MTZ011-013-016-021-045-047-050-051-032200-
NORTH CENTRAL MONTANA

CITY           SKY/WX    TMP DP  RH WIND       PRES   REMARKS
HAVRE          PTSUNNY   44  22  41 NW18G30   29.81S
LEWISTOWN      CLOUDY    38  22  52 W21G30    29.86R WCI  28
N BAR RANCH      N/A     41  18  38 W24G36    29.85R
CHINOOK          N/A     45  25  45 W15       29.80S
DENTON           N/A     41  19  42 W31G54    29.82S
GEYSER           N/A     38  21  50 W25G33    29.86F WCI  27
GRASS RANGE    PTSUNNY   42  19  39 W25G39    29.81R
JUDITH GAP       N/A     37  17  44 W26G36    29.87R WCI  25
ROY              N/A     42  20  40 MISG      29.80S
STANFORD         N/A     40  17  39 NW31G38   29.86R
WINIFRED       PTSUNNY   41  19  41 MISG      29.83S
$$

MTZ017>020-022>027-061-062-032200-
NORTHEAST MONTANA

CITY           SKY/WX    TMP DP  RH WIND       PRES   REMARKS
GLASGOW        FLURRIES  34  32  92 W17       29.76R WCI  23
JORDAN           N/A     43  22  43 W21       29.78R
SIDNEY         CLOUDY    33  26  75 S14       29.76F WCI  23
WOLF POINT     CLOUDY    41  29  62 W17G25    29.74S
PLENTYWOOD       N/A     32  32 100 SW8       29.71S VSB 3/4 WCI  25
POPLAR           N/A     37  27  65 W8        29.74S WCI  31
SCOBEY           N/A     33  27  79 SW6       29.69F WCI  27
$$

MTZ028>42-056>058-032200-
SOUTHCENTRAL AND SOUTHEAST MONTANA

CITY           SKY/WX    TMP DP  RH WIND       PRES   REMARKS
BAKER          SUNNY     36  24  62 W20       29.80S WCI  25
BILLINGS       PTSUNNY   45  15  30 NW25G35   29.88R
LIVINGSTON     FLURRIES  36  19  50 SW24G30   29.93S WCI  24
MILES CITY     CLOUDY    46  22  38 W20       29.80F
BIG TIMBER     CLOUDY    39  18  41 W21G30    29.95R WCI  29
EKALAKA          N/A     35  22  59 SW12      29.81F WCI  27
FORSYTH          N/A     43  25  49 W12G30    29.82S
HARLOWTON      PTSUNNY   38  19  46 W33G47    29.89R WCI  25
LAUREL           N/A     45  15  30 W23       29.90R
ROUNDUP          N/A     44  16  32 W24       29.79R
$$

REGIONAL REPORTS...DAKOTAS

CITY           SKY/WX    TMP DP  RH WIND       PRES   REMARKS
WILLISTON      CLOUDY    34  26  72 S8        29.74F WCI  27
MINOT          SUNNY     28  24  85 S18G24    29.79F WCI  15
DICKINSON      CLOUDY    30  24  78 SW10      29.77F WCI  21
BEACH          PTSUNNY   34  27  75 SW13      29.80S WCI  25
CROSBY         CLOUDY    30  30 100 S16       29.73F WCI  19
TIOGA            N/A     28  28 100 S14       29.75F FOG     WCI  17
WATFORD CITY     N/A     32  28  86 SW9       29.76F WCI  24
BISMARCK       PTSUNNY   28  24  85 SE7       29.89S WCI  21
GRAND FORKS    CLOUDY    31  23  72 SE18      30.05F WCI  19
FARGO          MOSUNNY   32  25  75 SE16      30.06F WCI  21
BUFFALO SD       N/A     37  28  70 W13       29.76F WCI  29
RAPID CITY     CLOUDY    42  23  46 NW15      29.88R
$$

REGIONAL REPORTS...WYOMING/IDAHO/WASHINGTON

CITY           SKY/WX    TMP DP  RH WIND       PRES   REMARKS
GILLETTE       CLOUDY    37  24  59 W13       29.88F WCI  29
SHERIDAN       CLOUDY    43  19  38 N12       29.88S
BUFFALO WY     CLOUDY    40  12  32 S8        29.88F
YELLOWSTONE LA   N/A     18  12  77 MISG      30.04S
IDAHO FALLS    CLOUDY    31  21  66 SW16      30.18F WCI  20
SALMON         CLOUDY    34  23  64 SW5       30.10F
BOISE          CLOUDY    43  27  53 N3        30.25F
SPOKANE        PTSUNNY   41  32  70 SW17      30.11F
$$

REGIONAL REPORTS...ALBERTA

CITY           SKY/WX    TMP DP  RH WIND       PRES   REMARKS
EDMONTON       SUNNY     37  23  56 SW8       29.67F WCI  31
CALGARY        PTSUNNY   39   5  24 W16G24    29.76F WCI  30
LETHBRIDGE     PTSUNNY   41  18  38 W23G33    29.82R
MEDICINE HAT   MOSUNNY   43  30  61 NW12      29.80F
WATERTON GATE    N/A     37  18  44 SW15G24     N/A  WCI  28
CARDSTON         N/A     39  18  41 W17G25      N/A  WCI  30
MILK RIVER       N/A     43  18  36 W25G36      N/A
ONEFOUR          N/A     41  18  38 NW26G33     N/A
$$

REGIONAL REPORTS...SASKATCHEWAN

CITY           SKY/WX    TMP DP  RH WIND       PRES   REMARKS
SWIFT CURRENT  LGT SNOW  30  30 100 NW12      29.68R WCI  21
REGINA         PTSUNNY   34  30  86 W13       29.63S WCI  25
SASKATOON      CLOUDY    27  23  86 N9        29.70R WCI  17
CYPRESS HILLS    N/A     30  27  86 NW13G25     N/A  WCI  20
VAL MARIE        N/A     39  32  75 W20G30      N/A  WCI  30
ROCKGLEN         N/A     32  30  93 W14G20      N/A  WCI  22
ASSINIBOIA       N/A     41  19  42 W12         N/A
$$



USA.gov is the U.S. government's official web portal to all federal, state and local government web resources and services.